This is the latest recevied weather packets stored in our database for station/object AE5HO. If no packets are shown the sender has not sent any weather packets the latest 10 day(s).
| Time | Temp. | Humidity | Pressure | Rain* | Wind** | Luminosity | Snow |
|---|---|---|---|---|---|---|---|
| 1787555925 | 32.22° C | 49% | 1012.9 hPa | 0 mm | - | 0 W/m² | - |
| 1787555623 | 32.78° C | 48% | 1013 hPa | 0 mm | - | 0 W/m² | - |
| 1787555319 | 32.78° C | 49% | 1012.9 hPa | 0 mm | - | 0 W/m² | - |
| 1787555016 | 32.78° C | 47% | 1012.9 hPa | 0 mm | - | 0 W/m² | - |
| 1787554715 | 32.78° C | 49% | 1012.8 hPa | 0 mm | - | 0 W/m² | - |
| 1787554410 | 32.78° C | 47% | 1012.6 hPa | 0 mm | - | 0 W/m² | - |
| 1787554105 | 32.78° C | 48% | 1012.7 hPa | 0 mm | - | 0 W/m² | - |
| 1787553801 | 32.78° C | 48% | 1013 hPa | 0 mm | - | 0 W/m² | - |
| 1787553496 | 32.78° C | 48% | 1012.9 hPa | 0 mm | - | 0 W/m² | - |
| 1787553192 | 32.78° C | 47% | 1012.9 hPa | 0 mm | - | 0 W/m² | - |
| 1787552890 | 32.78° C | 46% | 1013 hPa | 0 mm | - | 0 W/m² | - |
| 1787552585 | 32.78° C | 47% | 1013.1 hPa | 0 mm | - | 0 W/m² | - |
| 1787552281 | 32.78° C | 47% | 1012.9 hPa | 0 mm | - | 0 W/m² | - |
| 1787551981 | 32.78° C | 51% | 1013 hPa | 0 mm | - | 0 W/m² | - |
| 1787551680 | 32.78° C | 47% | 1013.1 hPa | 0 mm | - | 0 W/m² | - |
| 1787551375 | 33.33° C | 48% | 1013 hPa | 0 mm | - | 0 W/m² | - |
| 1787551070 | 33.89° C | 45% | 1012.9 hPa | 0 mm | - | 0 W/m² | - |
| 1787550765 | 33.33° C | 46% | 1013.1 hPa | 0 mm | - | 0 W/m² | - |
| 1787550461 | 33.33° C | 46% | 1013.3 hPa | 0 mm | - | 0 W/m² | - |
| 1787550156 | 33.89° C | 45% | 1013.3 hPa | 0 mm | - | 0 W/m² | - |
| 1787549852 | 33.89° C | 45% | 1013.4 hPa | 0 mm | - | 0 W/m² | - |
| 1787549548 | 33.89° C | 45% | 1013.3 hPa | 0 mm | - | 0 W/m² | - |
| 1787549248 | 33.89° C | 45% | 1013 hPa | 0 mm | - | 0 W/m² | - |
| 1787548944 | 33.89° C | 45% | 1013.4 hPa | 0 mm | - | 0 W/m² | - |
| 1787548640 | 33.89° C | 45% | 1013.4 hPa | 0 mm | - | 0 W/m² | - |
* Rain latest hour (hover to see other rain measurements)
** Current wind speed in m/s (hover to see current wind gust speed)